Sturgis, MI

6:55 PM EST on December 15, 2019 (GMT -0500)
Kirsch Municipal

Weather History for KIRS - October, 2019

Change the Weather History Date:

Saturday, October 12, 2019

  Actual Average (WUND) Record (WUND)
Temperature  
Mean Temperature 44 °F -  
Max Temperature 52 °F - - (-1)
Min Temperature 35 °F - - (-1)
Degree Days  
Heating Degree Days 22    
Moisture  
Dew Point 28 °F    
Average Humidity 54    
Maximum Humidity 80    
Minimum Humidity 32    
Precipitation  
Precipitation 0.00 in - - ()
Sea Level Pressure  
Sea Level Pressure 29.99 in    
Wind  
Wind Speed 11 mph ()    
Max Wind Speed 24 mph    
Max Gust Speed 31 mph    
Visibility 10.0 miles    
Events      
Averages and records for this station are not official NWS values.
T = Trace of Precipitation, MM = Missing Value Source: Averaged Metar Reports

Daily Weather History Graph

Daily Weather History Graph

Search for Another Location

Airport or City:

Astronomy

Oct. 12, 2019 Rise Set
Actual Time 7:50 AM EDT 7:05 PM EDT
Civil Twilight 7:22 AM EDT 7:33 PM EDT
Nautical Twilight 6:50 AM EDT 8:05 PM EDT
Astronomical Twilight 6:17 AM EDT 8:37 PM EDT
Moon 7:02 PM EDT (10/12) 6:24 AM EDT (10/12)
Length of Visible Light 12h 10m
Length of Day
11h 15m
Waxing Gibbous, 99% of the Moon is Illuminated
Oct 12
Waxing Gibbous
Oct 13
Full
Oct 21
Last Quarter
Oct 27
New
Nov 4
First Quarter

Hourly Weather History & Observations

Time (EDT) Temp. Windchill Dew Point Humidity Pressure Visibility Wind Dir Wind Speed Gust Speed Precip Events Conditions
12:15 AM 43.5 °F 37.5 °F 36.3 °F 76% 30.00 in 10.0 mi West 11.5 mph 19.6 mph N/A   Overcast
12:35 AM 43.7 °F 38.1 °F 36.5 °F 76% 30.00 in 10.0 mi West 10.4 mph 17.3 mph N/A   Overcast
12:36 AM 43.7 °F 38.6 °F 36.5 °F 76% 30.00 in 10.0 mi West 9.2 mph 17.3 mph N/A   Overcast
12:59 AM 43.3 °F 37.2 °F 34.2 °F 70% 30.00 in 10.0 mi West 11.5 mph 20.7 mph N/A   Overcast
1:17 AM 43.0 °F 37.2 °F 33.3 °F 69% 30.01 in 10.0 mi West 10.4 mph 16.1 mph N/A   Overcast
1:35 AM 42.8 °F 36.6 °F 32.0 °F 66% 30.01 in 10.0 mi West 11.5 mph 17.3 mph N/A   Overcast
1:55 AM 42.1 °F 37.1 °F 32.0 °F 67% 30.01 in 10.0 mi West 8.1 mph - N/A   Overcast
1:56 AM 42.1 °F 36.1 °F 32.0 °F 67% 30.01 in 10.0 mi West 10.4 mph - N/A   Overcast
2:15 AM 41.9 °F 36.3 °F 32.7 °F 70% 30.01 in 10.0 mi WSW 9.2 mph - N/A   Overcast
2:38 AM 41.5 °F 35.9 °F 34.3 °F 76% 30.01 in 10.0 mi WSW 9.2 mph - N/A   Overcast
2:56 AM 41.4 °F 36.2 °F 34.9 °F 78% 30.01 in 10.0 mi WSW 8.1 mph - N/A   Overcast
3:15 AM 41.0 °F 34.3 °F 32.0 °F 70% 30.01 in 10.0 mi WSW 11.5 mph - N/A   Overcast
3:35 AM 41.0 °F 34.3 °F 31.3 °F 68% 30.01 in 10.0 mi WSW 11.5 mph - N/A   Overcast
3:36 AM 41.0 °F 33.5 °F 31.1 °F 68% 30.01 in 10.0 mi WSW 13.8 mph 19.6 mph N/A   Overcast
3:59 AM 39.7 °F 34.3 °F 30.2 °F 69% 30.00 in 10.0 mi WSW 8.1 mph 16.1 mph N/A   Overcast
4:17 AM 39.4 °F 32.3 °F 29.1 °F 67% 30.01 in 10.0 mi WSW 11.5 mph - N/A   Overcast
4:35 AM 38.3 °F 32.5 °F 28.8 °F 69% 30.01 in 10.0 mi WSW 8.1 mph - N/A   Mostly Cloudy
4:36 AM 38.3 °F 32.5 °F 28.8 °F 69% 30.01 in 10.0 mi WSW 8.1 mph - N/A   Mostly Cloudy
4:55 AM 37.4 °F 31.4 °F 28.9 °F 71% 30.01 in 10.0 mi WSW 8.1 mph - N/A   Scattered Clouds
5:19 AM 36.5 °F 31.8 °F 28.6 °F 73% 30.01 in 10.0 mi WSW 5.8 mph - N/A   Clear
5:37 AM 36.5 °F 30.3 °F 28.0 °F 71% 30.01 in 10.0 mi WSW 8.1 mph - N/A   Clear
5:55 AM 36.7 °F 29.9 °F 27.5 °F 69% 30.02 in 10.0 mi WSW 9.2 mph - N/A   Scattered Clouds
5:56 AM 36.7 °F 30.5 °F 27.5 °F 69% 30.02 in 10.0 mi WSW 8.1 mph - N/A   Scattered Clouds
6:15 AM 36.0 °F 30.3 °F 27.9 °F 72% 30.02 in 10.0 mi SW 6.9 mph - N/A   Scattered Clouds
6:16 AM 36.0 °F 29.6 °F 28.0 °F 73% 30.02 in 10.0 mi SW 8.1 mph - N/A   Scattered Clouds
6:35 AM 35.6 °F 28.6 °F 28.4 °F 75% 30.02 in 10.0 mi SW 9.2 mph - N/A   Clear
6:58 AM 36.0 °F 29.0 °F 29.5 °F 77% 30.03 in 10.0 mi SW 9.2 mph - N/A   Mostly Cloudy
7:16 AM 35.8 °F 28.3 °F 29.8 °F 79% 30.03 in 10.0 mi SW 10.4 mph - N/A   Overcast
7:35 AM 35.2 °F 28.1 °F 29.3 °F 79% 30.03 in 10.0 mi SW 9.2 mph - N/A   Scattered Clouds
7:36 AM 35.1 °F 27.9 °F 29.3 °F 80% 30.03 in 10.0 mi SW 9.2 mph - N/A   Scattered Clouds
7:55 AM 35.1 °F 28.6 °F 29.3 °F 80% 30.04 in 10.0 mi SW 8.1 mph - N/A   Clear
8:19 AM 36.1 °F 28.2 °F 29.1 °F 76% 30.04 in 10.0 mi SW 11.5 mph - N/A   Mostly Cloudy
8:37 AM 37.4 °F 29.3 °F 28.9 °F 71% 30.05 in 10.0 mi SW 12.7 mph 17.3 mph N/A   Overcast
8:55 AM 37.8 °F 30.2 °F 28.9 °F 71% 30.05 in 10.0 mi WSW 11.5 mph 16.1 mph N/A   Overcast
9:15 AM 37.8 °F 30.7 °F 29.1 °F 71% 30.05 in 10.0 mi SW 10.4 mph 17.3 mph N/A   Overcast
9:35 AM 38.5 °F 31.1 °F 29.5 °F 70% 30.06 in 10.0 mi WSW 11.5 mph 16.1 mph N/A   Overcast
9:40 AM 38.7 °F 32.4 °F 28.9 °F 68% 30.06 in 10.0 mi WSW 9.2 mph 16.1 mph N/A   Overcast
9:58 AM 40.3 °F 33.4 °F 29.7 °F 66% 30.05 in 10.0 mi SW 11.5 mph - N/A   Scattered Clouds
10:16 AM 41.2 °F 34.5 °F 28.2 °F 60% 30.05 in 10.0 mi WSW 11.5 mph - N/A   Clear
10:35 AM 41.9 °F 34.0 °F 27.0 °F 55% 30.06 in 10.0 mi West 16.1 mph 19.6 mph N/A   Clear
10:55 AM 42.8 °F 35.1 °F 27.0 °F 54% 30.06 in 10.0 mi WSW 16.1 mph - N/A   Clear
10:56 AM 42.6 °F 35.2 °F 26.8 °F 54% 30.06 in 10.0 mi WSW 15.0 mph - N/A   Clear
11:19 AM 43.2 °F 35.6 °F 25.9 °F 51% 30.06 in 10.0 mi WSW 16.1 mph 21.9 mph N/A   Scattered Clouds
11:37 AM 44.2 °F 38.8 °F 25.5 °F 48% 30.06 in 10.0 mi WSW 10.4 mph 23.0 mph N/A   Scattered Clouds
11:55 AM 44.6 °F 37.8 °F 23.2 °F 43% 30.05 in 10.0 mi WSW 15.0 mph 23.0 mph N/A   Clear
12:15 PM 45.7 °F 38.3 °F 22.8 °F 41% 30.05 in 10.0 mi West 18.4 mph 25.3 mph N/A   Clear
12:16 PM 45.5 °F 37.8 °F 22.5 °F 40% 30.05 in 10.0 mi WSW 19.6 mph 25.3 mph N/A   Clear
12:40 PM 46.8 °F - 23.2 °F 40% 30.05 in 10.0 mi WSW 16.1 mph 25.3 mph N/A   Clear
12:58 PM 46.6 °F - 21.9 °F 38% 30.04 in 10.0 mi WSW 17.3 mph 24.2 mph N/A   Clear
1:16 PM 47.8 °F - 23.4 °F 38% 30.04 in 10.0 mi WSW 17.3 mph 25.3 mph N/A   Clear
1:35 PM 48.4 °F - 24.1 °F 39% 30.03 in 10.0 mi WSW 16.1 mph 23.0 mph N/A   Clear
1:36 PM 48.7 °F - 24.4 °F 39% 30.03 in 10.0 mi WSW 16.1 mph 23.0 mph N/A   Clear
1:55 PM 49.1 °F - 23.5 °F 37% 30.02 in 10.0 mi WSW 17.3 mph 25.3 mph N/A   Clear
1:56 PM 49.1 °F - 23.7 °F 37% 30.01 in 10.0 mi WSW 17.3 mph 25.3 mph N/A   Clear
2:19 PM 49.5 °F - 24.3 °F 37% 30.00 in 10.0 mi SW 20.7 mph 25.3 mph N/A   Clear
2:37 PM 50.2 °F - 24.3 °F 36% 30.00 in 10.0 mi SW 19.6 mph 26.5 mph N/A   Clear
2:56 PM 51.6 °F - 25.3 °F 36% 29.99 in 10.0 mi SW 18.4 mph 23.0 mph N/A   Clear
3:15 PM 51.3 °F - 23.9 °F 34% 29.99 in 10.0 mi WSW 17.3 mph 24.2 mph N/A   Clear
3:16 PM 51.4 °F - 24.1 °F 34% 29.99 in 10.0 mi SW 18.4 mph 24.2 mph N/A   Clear
3:35 PM 51.6 °F - 23.9 °F 34% 29.98 in 10.0 mi SW 18.4 mph 24.2 mph N/A   Clear
3:59 PM 52.2 °F - 23.5 °F 33% 29.97 in 10.0 mi SW 24.2 mph 31.1 mph N/A   Clear
4:17 PM 52.5 °F - 23.7 °F 33% 29.96 in 10.0 mi SW 18.4 mph 26.5 mph N/A   Clear
4:35 PM 52.5 °F - 23.5 °F 32% 29.95 in 10.0 mi SW 20.7 mph 25.3 mph N/A   Clear
4:36 PM 52.5 °F - 23.4 °F 32% 29.95 in 10.0 mi SSW 20.7 mph 25.3 mph N/A   Clear
4:55 PM 52.3 °F - 24.4 °F 34% 29.94 in 10.0 mi SW 16.1 mph 23.0 mph N/A   Clear
4:56 PM 52.3 °F - 24.6 °F 34% 29.94 in 10.0 mi SW 16.1 mph 23.0 mph N/A   Clear
5:15 PM 52.7 °F - 23.9 °F 33% 29.94 in 10.0 mi SSW 20.7 mph 28.8 mph N/A   Clear
5:38 PM 52.5 °F - 24.8 °F 34% 29.94 in 10.0 mi SSW 15.0 mph 23.0 mph N/A   Clear
5:56 PM 52.0 °F - 23.9 °F 34% 29.94 in 10.0 mi SSW 17.3 mph 26.5 mph N/A   Clear
6:15 PM 51.3 °F - 24.8 °F 36% 29.94 in 10.0 mi SSW 13.8 mph 20.7 mph N/A   Clear
6:16 PM 51.3 °F - 25.0 °F 36% 29.94 in 10.0 mi SSW 15.0 mph 20.7 mph N/A   Clear
6:35 PM 50.4 °F - 25.3 °F 38% 29.93 in 10.0 mi SSW 12.7 mph - N/A   Clear
6:36 PM 50.2 °F - 25.5 °F 38% 29.93 in 10.0 mi SSW 11.5 mph - N/A   Clear
6:59 PM 49.1 °F - 26.4 °F 41% 29.93 in 10.0 mi South 12.7 mph 19.6 mph N/A   Clear
7:17 PM 48.9 °F - 26.2 °F 41% 29.93 in 10.0 mi South 8.1 mph - N/A   Clear
7:35 PM 48.0 °F - 27.5 °F 45% 29.92 in 10.0 mi South 10.4 mph - N/A   Clear
7:36 PM 47.8 °F - 27.7 °F 46% 29.92 in 10.0 mi South 10.4 mph - N/A   Clear
7:55 PM 47.3 °F - 28.2 °F 48% 29.93 in 10.0 mi South 10.4 mph - N/A   Clear
7:56 PM 47.3 °F - 28.0 °F 47% 29.93 in 10.0 mi South 10.4 mph - N/A   Clear
8:15 PM 47.3 °F - 28.0 °F 47% 29.93 in 10.0 mi South 11.5 mph - N/A   Clear
8:20 PM 47.1 °F - 28.0 °F 48% 29.93 in 10.0 mi South 11.5 mph - N/A   Clear
8:38 PM 46.8 °F - 28.2 °F 49% 29.94 in 10.0 mi SSW 10.4 mph - N/A   Clear
8:56 PM 46.9 °F - 28.4 °F 49% 29.93 in 10.0 mi South 10.4 mph - N/A   Clear
9:15 PM 46.6 °F - 28.6 °F 50% 29.93 in 10.0 mi SSW 9.2 mph - N/A   Clear
9:16 PM 46.6 °F - 28.6 °F 50% 29.93 in 10.0 mi SSW 10.4 mph - N/A   Clear
9:35 PM 46.9 °F - 28.4 °F 49% 29.92 in 10.0 mi SSW 12.7 mph - N/A   Clear
9:36 PM 46.9 °F - 28.4 °F 49% 29.92 in 10.0 mi South 10.4 mph - N/A   Clear
9:59 PM 46.6 °F - 28.4 °F 49% 29.92 in 10.0 mi SSW 10.4 mph - N/A   Clear
10:17 PM 46.2 °F 40.5 °F 28.9 °F 51% 29.92 in 10.0 mi South 12.7 mph 17.3 mph N/A   Clear
10:35 PM 46.4 °F 40.1 °F 29.1 °F 51% 29.92 in 10.0 mi SSW 15.0 mph - N/A   Clear
10:55 PM 46.4 °F 39.8 °F 29.3 °F 51% 29.92 in 10.0 mi SSW 16.1 mph 21.9 mph N/A   Clear
10:56 PM 46.4 °F 39.8 °F 29.3 °F 51% 29.92 in 10.0 mi SSW 16.1 mph 21.9 mph N/A   Clear
11:15 PM 46.4 °F 40.7 °F 29.5 °F 52% 29.92 in 10.0 mi SSW 12.7 mph 19.6 mph N/A   Clear
11:38 PM 45.7 °F 39.8 °F 30.0 °F 54% 29.91 in 10.0 mi SSW 12.7 mph 19.6 mph N/A   Clear
11:56 PM 45.5 °F 39.2 °F 30.2 °F 55% 29.91 in 10.0 mi SSW 13.8 mph 17.3 mph N/A   Clear